Location: ????????
(55.0559°N, 39.1270°E)
Time: 01:16:30
(UTC+00:00)

Cosmos 2034 Rocket - Pass Details

Date: 15 November 2025
Orbit: 958 x 998 km, 82.9° (Epoch: 12 December)

Event Time Altitude Azimuth Distance (km) Brightness Sun altitude
Rises 03:00:53 0° 348° (NNW) 3,711 6.8 -16.1°
Reaches altitude 10° 03:03:25 10° 350° (N) 2,764 6.2 -15.8°
Maximum altitude 03:09:47 77° 77° (ENE) 1,025 4.2 -14.9°
Drops below altitude 10° 03:16:09 10° 164° (SSE) 2,763 6.7 -14.0°
Sets 03:18:41 0° 166° (SSE) 3,709 7.4 -13.6°
